sat.trackr.live / text

‹ back to catalog

STARLINK-31463

NORAD 59296 · 2024-056A

PAYLOAD ACTIVE UNKNOWN

§ Identity

Operator
Country
US
Launch date
2024-03-24
Launch site
AFETR
Launch vehicle
Mass (kg)
RCS (m²)

Purposes: comms

External: N2YO · Heavens-Above · Gunter

§ Orbital elements

Epoch: 2026-09-19T14:01:05.160000Z

Period
94.27 min
Inclination
43.0043°
Eccentricity
0.0001135
Mean motion
15.27574080 rev/d
Perigee alt
482.3 km
Apogee alt
483.8 km
Semi-major
6,861.2 km
B*
3.4573e-5
RAAN
211.7518°
Arg perigee
275.2584°
Mean anomaly
84.8138°
Rev number
14,085

§ Raw data

STARLINK-314631 59296U 24056A   26262.58408750  .00000689  00000+0  34573-4 0  99912 59296  43.0043 211.7518 0001135 275.2584  84.8138 15.27574080140854

JSON: /api/v1/satellites/59296 · /tle

For live sub-satellite position, see the globe view (requires WebGL).

§ Visibility from observer

Set your observer location to see the next 7 days of passes ≥ 10°. The values pass through the URL so the page stays shareable.

No JS? Fill the form by hand. The geolocation button needs JavaScript.